{"data":{"norad_id":59384,"epoch":"2026-05-25T01:09:43.456032Z","epoch_age_seconds":77699,"freshness":"FRESH","line1":"1 59384U 24062L   26145.04841963 -.00001248  00000+0 -30025-4 0  9996","line2":"2 59384  53.1603 260.8899 0001255  90.3268 269.7877 15.30194365121368","mean_motion":15.30194365,"eccentricity":0.0001255,"inclination_deg":53.1603,"raan_deg":260.8899,"arg_perigee_deg":90.3268,"mean_anomaly_deg":269.7877,"bstar":-3.0025e-5,"rev_number":12136,"period_min":94.105692253023,"perigee_km":474.37179676897,"apogee_km":476.09199236151,"semimajor_km":6853.3688945652,"source":"CELESTRAK","updated_at":"2026-05-25T13:38:18.915165Z"}}